QPF
0.00 0.00 0.00 0.00 0.00 0.00 0.00 0.00 0.00 0.00 0.00 0.00 0.00 0.00 0.00 0.00 0.00 0.00 0.00 0.00 0.00 0.00 0.00 0.00 0.00 0.00 0.00 0.00 0.00 0.00 0.00 0.00 0.00 0.00 0.00 0.00 0.00 0.00 0.00 0.00 0.00 0.00 0.00
0.00 0.00 0.00 0.00 0.00 0.00 0.00 0.00 0.00 0.00 0.00 0.00 0.00 0.00 0.00 0.00 0.00 0.00 0.00 0.00 0.00 0.00 0.00 0.00 0.00 0.00 0.00 0.00 0.00 0.00 0.00 0.00 0.00 0.00 0.00 0.00 0.00 0.00 0.00 0.00 0.00 0.00 0.00
0.00 0.00 0.00 0.00 0.00 0.00 0.00 0.00 0.00 0.00 0.00 0.00 0.00 0.00 0.00 0.00 0.00 0.00 0.00 0.00 0.00 0.00 0.00 0.00 0.00 0.00 0.00 0.00 0.00 0.00 0.00 0.00 0.00 0.00 0.00 0.00 0.00 0.00 0.00 0.00 0.00 0.00 0.00
0.00 0.00 0.00 0.00 0.00 0.00 0.00 0.00 0.00 0.00 0.00 0.00 0.00 0.00 0.00 0.00 0.00 0.00 0.00 0.00 0.00 0.00 0.00 0.00 0.00 0.00 0.00 0.00 0.00 0.00 0.00 0.00 0.00 0.00 0.00 0.00 0.00 0.00 0.00 0.00 0.00 0.00 0.00
0.00 0.00 0.00 0.00 0.00 0.00 0.00 0.00 0.00 0.00 0.00 0.00 0.00 0.00 0.00 0.00 0.00 0.00 0.00 0.00 0.00 0.00 0.00 0.00 0.00 0.01 0.03 0.05 0.04 0.01 0.01 0.00 0.00 0.00 0.00 0.00 0.00 0.00 0.00 0.00 0.00 0.00 0.00
0.00 0.00 0.00 0.00 0.00 0.00 0.00 0.00 0.00 0.00 0.00 0.00 0.00 0.00 0.00 0.00 0.00 0.00 0.00 0.00 0.00 0.00 0.00 0.01 0.01 0.02 0.02 0.02 0.03 0.06 0.06 0.03 0.01 0.01 0.00 0.00 0.00 0.00 0.00 0.00 0.00 0.00 0.00
0.00 0.00 0.00 0.00 0.00 0.00 0.00 0.00 0.00 0.00 0.00 0.00 0.00 0.00 0.00 0.00 0.00 0.00 0.00 0.00 0.00 0.01 0.01 0.00 0.00 0.00 0.01 0.00 0.00 0.01 0.01 0.01 0.01 0.02 0.02 0.01 0.01 0.00 0.00 0.00 0.00 0.00 0.00
0.00 0.00 0.00 0.00 0.00 0.00 0.00 0.00 0.00 0.00 0.00 0.00 0.00 0.00 0.00 0.00 0.00 0.00 0.00 0.00 0.00 0.00 0.00 0.00 0.00 0.00 0.00 0.00 0.00 0.00 0.00 0.00 0.00 0.00 0.00 0.00 0.00 0.00 0.00 0.00 0.00 0.00 0.00
0.00 0.00 0.00 0.00 0.00 0.00 0.00 0.00 0.00 0.00 0.00 0.00 0.00 0.00 0.00 0.00 0.00 0.00 0.00 0.00 0.00 0.00 0.01 0.00 0.00 0.00 0.00 0.02 0.05 0.01 0.00 0.00 0.00 0.00 0.02 0.02 0.02 0.04 0.04 0.03 0.01 0.00 0.00
0.00 0.00 0.00 0.00 0.00 0.00 0.00 0.00 0.00 0.00 0.00 0.00 0.00 0.00 0.00 0.00 0.00 0.00 0.00 0.01 0.01 0.01 0.00 0.00 0.01 0.02 0.04 0.05 0.04 0.01 0.00 0.00 0.00 0.00 0.00 0.00 0.00 0.00 0.01 0.01 0.01 0.01 0.00
0.00 0.00 0.00 0.00 0.00 0.00 0.00 0.00 0.00 0.00 0.00 0.00 0.00 0.00 0.00 0.00 0.00 0.00 0.01 0.01 0.01 0.01 0.01 0.01 0.00 0.01 0.01 0.03 0.06 0.03 0.00 0.00 0.01 0.01 0.00 0.00 0.00 0.00 0.00 0.00 0.00 0.01 0.00
0.00 0.00 0.00 0.00 0.00 0.00 0.00 0.00 0.00 0.00 0.00 0.00 0.00 0.00 0.00 0.00 0.00 0.00 0.01 0.03 0.03 0.02 0.01 0.00 0.00 0.01 0.05 0.05 0.02 0.00 0.00 0.01 0.00 0.00 0.00 0.00 0.00 0.00 0.00 0.00 0.00 0.00 0.00
0.00 0.00 0.00 0.00 0.00 0.00 0.00 0.00 0.00 0.00 0.00 0.00 0.00 0.00 0.00 0.00 0.00 0.00 0.01 0.01 0.05 0.03 0.01 0.01 0.01 0.01 0.01 0.00 0.00 0.00 0.00 0.00 0.00 0.00 0.00 0.00 0.00 0.00 0.00 0.00 0.00 0.00 0.00
0.00 0.00 0.00 0.00 0.00 0.00 0.00 0.00 0.00 0.00 0.00 0.00 0.00 0.00 0.00 0.00 0.00 0.00 0.00 0.02 0.03 0.01 0.00 0.00 0.01 0.00 0.00 0.00 0.00 0.00 0.00 0.00 0.00 0.00 0.00 0.00 0.00 0.00 0.00 0.00 0.00 0.00 0.00
0.00 0.00 0.00 0.00 0.00 0.00 0.00 0.00 0.00 0.00 0.00 0.00 0.01 0.00 0.00 0.00 0.00 0.01 0.02 0.02 0.01 0.01 0.01 0.00 0.00 0.00 0.00 0.00 0.00 0.00 0.00 0.00 0.00 0.00 0.00 0.00 0.00 0.00 0.00 0.00 0.00 0.00 0.00
0.00 0.00 0.00 0.00 0.00 0.00 0.00 0.00 0.00 0.00 0.00 0.01 0.00 0.01 0.01 0.01 0.02 0.02 0.03 0.02 0.01 0.01 0.00 0.00 0.00 0.00 0.00 0.00 0.00 0.00 0.00 0.00 0.00 0.00 0.00 0.00 0.00 0.00 0.00 0.00 0.01 0.00 0.00
0.00 0.00 0.00 0.00 0.00 0.00 0.00 0.00 0.00 0.00 0.00 0.00 0.00 0.00 0.01 0.01 0.01 0.02 0.03 0.01 0.00 0.00 0.00 0.00 0.00 0.00 0.00 0.00 0.00 0.00 0.00 0.00 0.00 0.00 0.00 0.00 0.00 0.00 0.00 0.00 0.00 0.00 0.00
0.00 0.00 0.00 0.00 0.00 0.00 0.00 0.00 0.00 0.00 0.00 0.00 0.00 0.00 0.00 0.00 0.01 0.02 0.01 0.00 0.00 0.00 0.00 0.00 0.00 0.01 0.01 0.01 0.00 0.00 0.00 0.00 0.00 0.00 0.00 0.00 0.00 0.00 0.00 0.00 0.00 0.00 0.00
0.00 0.00 0.00 0.00 0.00 0.00 0.00 0.00 0.00 0.00 0.00 0.00 0.00 0.00 0.00 0.00 0.01 0.01 0.00 0.00 0.00 0.00 0.00 0.00 0.00 0.01 0.01 0.01 0.01 0.00 0.00 0.00 0.00 0.00 0.00 0.00 0.00 0.00 0.00 0.00 0.00 0.00 0.00
0.00 0.00 0.00 0.00 0.00 0.00 0.00 0.00 0.00 0.00 0.00 0.00 0.00 0.00 0.00 0.00 0.00 0.00 0.00 0.00 0.00 0.00 0.00 0.00 0.00 0.01 0.01 0.01 0.00 0.00 0.00 0.00 0.00 0.00 0.00 0.00 0.00 0.00 0.00 0.00 0.00 0.00 0.00
0.00 0.00 0.00 0.00 0.00 0.00 0.00 0.00 0.00 0.00 0.00 0.00 0.00 0.00 0.01 0.00 0.00 0.00 0.00 0.00 0.00 0.00 0.00 0.00 0.00 0.00 0.01 0.00 0.00 0.00 0.00 0.00 0.00 0.00 0.00 0.00 0.00 0.00 0.00 0.00 0.00 0.00 0.00
0.00 0.00 0.00 0.00 0.00 0.00 0.00 0.00 0.00 0.00 0.00 0.00 0.00 0.00 0.00 0.00 0.00 0.00 0.00 0.00 0.00 0.00 0.00 0.00 0.00 0.00 0.00 0.00 0.00 0.00 0.00 0.00 0.00 0.00 0.00 0.00 0.00 0.00 0.00 0.00 0.00 0.00 0.00
0.00 0.00 0.00 0.00 0.00 0.00 0.00 0.00 0.00 0.00 0.00 0.00 0.00 0.00 0.00 0.00 0.00 0.00 0.00 0.00 0.00 0.00 0.00 0.00 0.00 0.00 0.00 0.00 0.00 0.00 0.00 0.00 0.00 0.00 0.00 0.00 0.00 0.00 0.00 0.00 0.00 0.01 0.00
0.00 0.00 0.00 0.00 0.00 0.00 0.00 0.00 0.00 0.00 0.00 0.00 0.00 0.00 0.00 0.00 0.00 0.00 0.00 0.00 0.00 0.00 0.00 0.00 0.00 0.00 0.00 0.00 0.00 0.00 0.00 0.00 0.00 0.00 0.00 0.00 0.00 0.00 0.00 0.00 0.00 0.01 0.01
0.00 0.00 0.00 0.00 0.00 0.00 0.00 0.00 0.00 0.00 0.00 0.00 0.00 0.00 0.00 0.00 0.00 0.00 0.00 0.00 0.00 0.00 0.00 0.00 0.00 0.00 0.00 0.00 0.00 0.00 0.00 0.00 0.00 0.00 0.00 0.00 0.00 0.00 0.00 0.00 0.00 0.00 0.01
0.00 0.00 0.00 0.00 0.00 0.00 0.00 0.00 0.00 0.00 0.00 0.00 0.00 0.00 0.00 0.00 0.00 0.00 0.00 0.00 0.00 0.00 0.00 0.00 0.00 0.00 0.00 0.00 0.00 0.00 0.00 0.00 0.00 0.00 0.00 0.00 0.00 0.00 0.00 0.00 0.00 0.00 0.00
MSLP
1018.86 1019.21 1019.58 1020.00 1020.26 1020.36 1020.44 1020.57 1020.68 1020.82 1020.89 1020.96 1021.02 1021.06 1021.02 1020.95 1020.90 1020.98 1020.91 1020.74 1020.66 1020.50 1020.43 1020.23 1019.88 1019.78 1019.53 1019.32 1019.34 1019.09 1019.10 1019.06 1018.39 1015.91 1017.00 1016.60 1016.70 1016.61 1016.14 1015.99 1015.95 1016.07 1016.03
1019.41 1019.75 1020.04 1020.20 1020.36 1020.49 1020.62 1020.74 1020.79 1020.78 1020.76 1020.82 1020.85 1020.88 1020.85 1020.74 1020.70 1020.63 1020.48 1020.27 1020.13 1019.95 1019.76 1019.55 1019.17 1018.84 1018.56 1018.42 1018.27 1018.08 1017.90 1017.61 1017.33 1016.07 1016.33 1015.94 1016.03 1015.77 1015.57 1015.46 1015.38 1015.23 1015.18
1019.62 1019.95 1020.26 1020.40 1020.52 1020.70 1020.76 1020.74 1020.75 1020.80 1020.80 1020.76 1020.73 1020.59 1020.45 1020.31 1020.18 1020.06 1019.86 1019.64 1019.45 1019.21 1018.86 1018.59 1018.11 1017.94 1017.71 1017.49 1017.23 1016.99 1016.70 1016.33 1016.06 1015.78 1015.35 1015.07 1014.91 1015.00 1014.87 1014.69 1014.69 1014.65 1014.29
1019.80 1020.16 1020.50 1020.52 1020.51 1020.55 1020.60 1020.66 1020.68 1020.67 1020.63 1020.54 1020.45 1020.30 1020.06 1019.83 1019.57 1019.30 1019.02 1018.82 1018.53 1018.17 1017.81 1017.44 1017.17 1016.89 1016.65 1016.34 1016.09 1015.60 1015.44 1015.28 1015.12 1014.96 1014.56 1013.98 1014.11 1014.05 1014.07 1013.87 1013.83 1013.77 1013.62
1020.35 1020.41 1020.37 1020.35 1020.40 1020.42 1020.44 1020.41 1020.45 1020.46 1020.42 1020.31 1020.10 1019.81 1019.58 1019.33 1018.98 1018.56 1018.10 1017.81 1017.53 1017.18 1016.64 1016.33 1016.03 1015.69 1015.16 1014.55 1014.20 1013.90 1013.94 1013.88 1013.69 1013.51 1013.43 1013.33 1013.15 1013.16 1013.09 1012.95 1012.80 1012.86 1012.48
1020.16 1020.27 1020.25 1020.25 1020.27 1020.32 1020.35 1020.40 1020.39 1020.31 1020.24 1020.08 1019.80 1019.55 1019.28 1018.95 1018.44 1017.75 1017.20 1016.80 1016.40 1015.96 1015.66 1015.39 1015.08 1014.64 1014.27 1013.84 1013.27 1012.80 1012.47 1012.39 1012.33 1012.24 1012.18 1012.53 1012.47 1012.27 1012.45 1012.21 1012.04 1012.07 1011.91
1020.26 1020.31 1020.34 1020.33 1020.30 1020.20 1020.22 1020.31 1020.30 1020.21 1019.97 1019.76 1019.56 1019.27 1018.89 1018.35 1017.68 1016.94 1016.30 1015.75 1015.34 1015.06 1014.86 1014.56 1014.29 1013.95 1013.48 1013.32 1012.86 1012.32 1011.90 1011.80 1011.53 1011.37 1011.47 1011.46 1011.37 1011.27 1011.30 1011.29 1011.29 1011.23 1010.70
1020.23 1020.29 1020.19 1020.20 1020.18 1020.09 1020.18 1020.24 1020.05 1019.82 1019.68 1019.52 1019.19 1018.83 1018.39 1017.70 1016.97 1016.23 1015.51 1014.88 1014.65 1014.34 1014.02 1013.68 1013.61 1013.14 1012.80 1012.40 1012.02 1011.64 1011.38 1011.06 1010.67 1010.63 1010.42 1010.13 1010.13 1010.01 1010.08 1009.99 1010.04 1009.94 1009.68
1020.09 1020.03 1019.95 1019.90 1019.95 1019.98 1019.94 1019.92 1019.65 1019.52 1019.38 1019.16 1018.80 1018.38 1017.94 1017.14 1016.42 1015.52 1014.75 1014.38 1014.02 1013.69 1013.41 1012.92 1012.61 1012.17 1011.67 1011.24 1010.72 1010.65 1010.43 1009.97 1009.66 1009.50 1009.19 1008.86 1008.46 1008.39 1008.59 1009.04 1008.99 1008.99 1008.37
1019.84 1019.74 1019.60 1019.54 1019.64 1019.77 1019.74 1019.58 1019.37 1019.30 1019.15 1018.82 1018.33 1017.81 1017.19 1016.45 1015.70 1014.95 1014.20 1013.68 1013.29 1012.92 1012.40 1012.10 1011.68 1011.26 1010.66 1010.20 1009.81 1009.74 1009.46 1009.44 1009.40 1008.74 1008.20 1007.69 1007.55 1007.48 1007.38 1007.25 1007.54 1007.68 1007.92
1019.56 1019.48 1019.41 1019.46 1019.56 1019.50 1019.41 1019.35 1019.26 1019.14 1018.88 1018.44 1017.80 1017.08 1016.48 1015.87 1015.16 1014.36 1013.53 1012.95 1012.55 1011.91 1011.57 1011.05 1010.97 1010.81 1010.04 1009.46 1009.13 1008.88 1008.82 1008.61 1008.16 1008.20 1007.57 1006.49 1006.22 1006.49 1006.61 1006.59 1006.61 1006.77 1006.46
1019.41 1019.38 1019.37 1019.38 1019.33 1019.24 1019.29 1019.16 1019.04 1018.85 1018.44 1017.87 1017.23 1016.39 1015.53 1015.13 1014.69 1013.89 1013.09 1012.38 1011.58 1011.27 1010.97 1010.83 1010.50 1009.92 1009.20 1008.76 1008.53 1008.46 1008.03 1007.71 1008.08 1007.75 1006.87 1005.83 1005.81 1005.78 1005.53 1005.58 1005.61 1005.71 1005.69
1019.34 1019.37 1019.44 1019.33 1019.19 1019.12 1019.18 1019.05 1018.80 1018.45 1018.04 1017.41 1016.66 1015.76 1015.06 1014.66 1014.12 1013.37 1012.61 1011.98 1011.30 1010.75 1010.58 1010.16 1009.36 1009.21 1008.95 1008.91 1008.70 1008.10 1007.72 1007.99 1007.88 1007.47 1006.85 1006.47 1006.04 1005.76 1005.45 1005.33 1005.06 1004.97 1004.87
1019.35 1019.44 1019.49 1019.38 1019.19 1019.09 1018.94 1018.74 1018.47 1018.08 1017.59 1016.81 1015.99 1015.24 1014.54 1013.96 1013.58 1012.73 1012.16 1011.53 1011.04 1010.50 1009.94 1009.58 1009.42 1009.15 1009.03 1008.74 1008.38 1007.92 1007.74 1007.72 1007.49 1007.08 1006.75 1006.35 1005.87 1005.41 1005.04 1004.68 1004.51 1004.27 1004.15
1019.38 1019.47 1019.41 1019.32 1019.29 1019.16 1018.84 1018.50 1018.05 1017.51 1016.88 1015.95 1015.32 1014.86 1014.26 1013.60 1012.88 1011.94 1011.27 1010.82 1010.36 1009.88 1009.39 1009.43 1009.31 1009.02 1008.75 1008.40 1008.17 1007.86 1007.31 1007.20 1007.13 1006.83 1006.47 1006.05 1005.62 1005.17 1004.58 1003.90 1003.64 1003.54 1003.48
1019.38 1019.44 1019.40 1019.27 1019.21 1019.01 1018.64 1018.13 1017.64 1016.88 1016.19 1015.49 1015.06 1014.39 1013.67 1013.07 1012.28 1011.55 1011.04 1010.57 1009.94 1009.60 1009.46 1009.42 1009.00 1008.62 1008.26 1007.94 1007.65 1007.46 1007.20 1006.78 1006.58 1006.39 1006.06 1005.65 1005.12 1004.58 1003.90 1003.32 1002.98 1002.67 1002.58
1019.60 1019.49 1019.37 1019.26 1019.11 1018.92 1018.55 1018.07 1017.31 1016.38 1015.98 1015.41 1014.77 1014.13 1013.39 1012.66 1011.98 1011.38 1010.84 1010.25 1009.91 1009.62 1009.53 1009.08 1008.63 1008.15 1007.74 1007.36 1007.15 1006.96 1006.73 1006.39 1006.06 1005.84 1005.52 1005.07 1004.61 1003.96 1003.35 1002.62 1002.03 1001.66 1001.44
1019.70 1019.35 1019.33 1019.20 1019.09 1018.75 1018.34 1017.84 1017.22 1016.43 1015.73 1015.06 1014.57 1014.00 1013.29 1012.56 1011.91 1011.15 1010.66 1010.19 1009.89 1009.41 1009.13 1008.68 1008.00 1007.75 1007.24 1006.96 1006.61 1006.35 1006.14 1005.85 1005.53 1005.20 1004.92 1004.51 1003.95 1003.32 1002.49 1001.71 1001.00 1000.51 1000.25
1019.69 1019.51 1019.26 1019.16 1018.94 1018.42 1018.08 1017.63 1016.90 1016.49 1015.83 1015.11 1014.36 1013.71 1013.21 1012.47 1011.67 1011.21 1010.66 1010.37 1009.75 1009.16 1008.62 1008.15 1007.65 1007.30 1006.71 1006.52 1006.11 1005.84 1005.62 1005.39 1005.00 1004.72 1004.46 1003.94 1003.22 1002.50 1001.47 1000.43 999.73 999.05 998.74
1019.70 1019.32 1018.99 1018.99 1018.69 1018.26 1017.94 1017.36 1016.89 1016.34 1015.67 1014.97 1014.34 1013.67 1012.90 1012.07 1011.55 1011.06 1010.59 1010.10 1009.53 1008.90 1008.32 1007.76 1007.19 1006.71 1006.27 1005.94 1005.61 1005.40 1005.15 1004.87 1004.58 1004.27 1003.87 1003.34 1002.54 1001.72 1000.66 999.34 998.31 997.00 996.56
1019.80 1019.60 1019.11 1019.03 1018.73 1018.35 1017.88 1017.35 1016.81 1016.19 1015.52 1014.93 1014.27 1013.63 1012.62 1012.02 1011.65 1011.06 1010.44 1009.83 1009.24 1008.63 1007.95 1007.27 1006.65 1006.18 1005.70 1005.34 1005.08 1004.90 1004.66 1004.38 1004.08 1003.80 1003.53 1002.97 1002.22 1001.27 999.97 998.75 997.28 996.25 995.92
1019.90 1019.75 1019.44 1019.14 1018.78 1018.31 1017.77 1017.25 1016.68 1016.07 1015.52 1014.83 1014.10 1013.43 1012.60 1012.15 1011.54 1010.91 1010.22 1009.58 1008.91 1008.23 1007.48 1006.78 1006.16 1005.66 1005.19 1004.83 1004.54 1004.39 1004.17 1003.95 1003.64 1003.55 1003.26 1002.76 1002.11 1001.09 999.75 998.39 997.23 996.75 996.80
1020.03 1019.85 1019.52 1019.22 1018.85 1018.19 1017.61 1017.13 1016.55 1016.03 1015.36 1014.70 1014.02 1013.30 1012.58 1011.94 1011.33 1010.66 1009.96 1009.23 1008.50 1007.73 1006.97 1006.29 1005.65 1005.05 1004.59 1004.26 1004.03 1003.86 1003.72 1003.49 1003.24 1003.29 1003.02 1002.58 1001.88 1000.91 999.70 998.40 997.27 996.69 996.89
1020.11 1019.93 1019.67 1019.34 1018.82 1018.17 1017.64 1017.00 1016.46 1015.87 1015.27 1014.49 1013.94 1013.18 1012.48 1011.83 1011.12 1010.37 1009.62 1008.84 1008.08 1007.26 1006.50 1005.77 1005.14 1004.54 1003.97 1003.62 1003.39 1003.19 1003.14 1002.98 1002.89 1002.91 1002.80 1002.50 1001.69 1000.62 999.64 998.45 997.58 997.20 997.10
1020.24 1020.03 1019.72 1019.38 1018.83 1018.27 1017.54 1016.97 1016.37 1015.80 1015.17 1014.37 1013.72 1012.95 1012.27 1011.53 1010.81 1010.02 1009.22 1008.41 1007.60 1006.81 1005.96 1005.20 1004.56 1003.98 1003.36 1002.95 1002.76 1002.60 1002.57 1002.52 1002.44 1002.51 1002.56 1002.34 1001.63 1000.59 999.65 998.67 997.89 997.36 997.29
1020.37 1020.05 1019.72 1019.38 1018.92 1018.28 1017.62 1016.99 1016.39 1015.79 1015.10 1014.35 1013.60 1012.77 1012.08 1011.31 1010.50 1009.66 1008.79 1007.93 1007.12 1006.22 1005.34 1004.58 1003.94 1003.35 1002.73 1002.25 1001.99 1001.87 1002.06 1002.14 1002.15 1002.22 1002.32 1002.06 1001.41 1000.40 999.59 998.74 998.13 997.71 997.42
Thickness
5568 5560 5551 5540 5531 5522 5514 5506 5498 5489 5481 5472 5464 5455 5447 5440 5433 5425 5417 5411 5404 5399 5392 5387 5387 5381 5379 5375 5367 5365 5360 5355 5359 5398 5375 5381 5381 5386 5396 5401 5408 5416 5424
5551 5542 5532 5523 5514 5505 5496 5487 5479 5471 5462 5453 5445 5437 5428 5420 5411 5403 5397 5391 5386 5382 5378 5373 5371 5368 5366 5362 5359 5355 5352 5351 5350 5365 5361 5366 5365 5368 5374 5383 5390 5399 5410
5535 5525 5514 5505 5496 5486 5477 5469 5460 5451 5441 5433 5424 5415 5407 5399 5391 5384 5379 5376 5371 5368 5366 5362 5361 5356 5356 5354 5352 5351 5349 5350 5349 5350 5354 5357 5358 5357 5361 5368 5375 5383 5394
5519 5508 5498 5488 5480 5470 5460 5450 5440 5430 5420 5411 5401 5394 5387 5382 5376 5371 5367 5364 5362 5360 5358 5357 5355 5353 5350 5348 5347 5347 5345 5344 5344 5343 5349 5355 5354 5354 5356 5360 5365 5368 5375
5501 5491 5482 5471 5461 5451 5440 5430 5419 5409 5400 5391 5384 5378 5372 5368 5364 5361 5360 5357 5355 5355 5358 5355 5352 5349 5349 5350 5348 5348 5345 5342 5341 5343 5343 5344 5348 5349 5353 5358 5362 5363 5371
5485 5475 5464 5452 5440 5430 5419 5408 5397 5388 5381 5374 5369 5364 5359 5355 5354 5355 5353 5352 5353 5354 5352 5347 5345 5345 5344 5345 5347 5348 5348 5345 5343 5342 5342 5337 5341 5346 5345 5350 5355 5355 5362
5466 5454 5441 5430 5420 5410 5399 5388 5380 5373 5368 5363 5356 5352 5349 5347 5348 5349 5350 5350 5349 5346 5343 5341 5340 5340 5341 5339 5340 5343 5344 5341 5340 5338 5337 5339 5341 5344 5344 5346 5348 5351 5360
5446 5434 5424 5413 5402 5392 5382 5374 5368 5363 5358 5352 5348 5344 5342 5344 5344 5345 5345 5345 5342 5340 5339 5339 5337 5338 5337 5338 5338 5339 5338 5337 5336 5333 5333 5339 5338 5341 5341 5345 5347 5352 5357
5432 5420 5409 5397 5387 5378 5371 5364 5360 5355 5350 5346 5342 5340 5338 5339 5338 5339 5339 5337 5337 5337 5336 5337 5337 5339 5341 5340 5339 5337 5337 5337 5335 5332 5332 5336 5342 5344 5343 5339 5342 5345 5357
5417 5405 5395 5385 5375 5367 5361 5356 5351 5346 5343 5341 5340 5338 5336 5334 5334 5335 5335 5335 5336 5336 5336 5337 5339 5340 5341 5340 5337 5333 5333 5332 5328 5330 5331 5335 5337 5339 5341 5343 5343 5345 5345
5403 5393 5383 5372 5364 5357 5353 5348 5343 5340 5338 5337 5337 5337 5332 5330 5331 5333 5334 5334 5335 5337 5339 5341 5339 5337 5338 5338 5336 5333 5330 5330 5330 5326 5329 5336 5337 5335 5336 5338 5341 5342 5347
5391 5381 5371 5362 5356 5352 5347 5342 5338 5336 5335 5334 5334 5334 5333 5330 5329 5331 5333 5335 5339 5340 5340 5339 5338 5339 5339 5337 5334 5331 5331 5330 5323 5322 5328 5336 5334 5334 5337 5338 5340 5342 5344
5381 5371 5362 5356 5352 5347 5342 5338 5336 5334 5331 5331 5331 5333 5332 5329 5329 5331 5334 5336 5339 5341 5339 5339 5342 5339 5336 5329 5326 5326 5326 5320 5317 5319 5322 5324 5326 5328 5331 5334 5337 5339 5343
5371 5363 5356 5351 5348 5342 5338 5336 5334 5331 5329 5329 5330 5330 5330 5329 5328 5330 5333 5335 5337 5339 5340 5338 5336 5333 5328 5325 5321 5319 5317 5314 5314 5316 5317 5319 5323 5327 5331 5334 5335 5339 5344
5363 5356 5351 5347 5341 5337 5335 5333 5333 5330 5328 5331 5331 5329 5329 5328 5330 5335 5338 5339 5339 5341 5341 5336 5332 5329 5324 5320 5315 5312 5313 5312 5311 5313 5315 5318 5321 5325 5330 5336 5340 5341 5346
5358 5351 5345 5342 5336 5333 5332 5332 5328 5328 5328 5330 5328 5329 5331 5331 5334 5336 5336 5338 5340 5339 5336 5330 5329 5326 5322 5317 5314 5310 5310 5312 5312 5313 5316 5320 5324 5329 5334 5339 5343 5347 5348
5350 5345 5340 5337 5333 5330 5329 5327 5330 5331 5324 5325 5327 5328 5330 5332 5333 5335 5336 5337 5336 5335 5330 5329 5327 5324 5320 5317 5313 5312 5311 5314 5316 5318 5321 5325 5329 5335 5339 5344 5350 5354 5355
5344 5342 5335 5332 5329 5327 5326 5325 5324 5327 5326 5326 5325 5326 5328 5330 5332 5335 5335 5335 5331 5331 5329 5327 5327 5322 5319 5317 5317 5317 5319 5321 5324 5327 5329 5331 5335 5339 5344 5350 5355 5357 5359
5338 5334 5332 5329 5326 5327 5325 5323 5325 5322 5322 5324 5325 5326 5327 5330 5333 5333 5333 5330 5330 5331 5330 5328 5326 5322 5321 5318 5320 5323 5325 5327 5331 5332 5333 5336 5341 5345 5351 5358 5362 5366 5365
5332 5332 5331 5326 5324 5324 5322 5323 5321 5320 5322 5324 5324 5326 5328 5331 5331 5331 5330 5330 5330 5331 5330 5329 5327 5325 5323 5322 5324 5328 5331 5334 5336 5337 5339 5342 5347 5352 5358 5367 5372 5380 5377
5326 5324 5326 5322 5321 5321 5321 5320 5319 5321 5322 5324 5325 5326 5331 5331 5330 5330 5331 5331 5331 5331 5331 5331 5330 5328 5327 5327 5329 5332 5336 5340 5342 5342 5344 5347 5352 5356 5365 5372 5381 5384 5380
5320 5320 5320 5319 5319 5320 5319 5319 5320 5321 5322 5325 5327 5328 5330 5329 5330 5330 5331 5331 5332 5332 5333 5334 5333 5332 5331 5331 5334 5337 5341 5344 5347 5346 5348 5351 5354 5360 5368 5377 5383 5381 5374
5317 5317 5318 5318 5317 5320 5319 5319 5320 5320 5324 5325 5327 5328 5329 5330 5330 5330 5331 5332 5333 5334 5336 5337 5337 5337 5336 5337 5338 5342 5346 5349 5351 5350 5351 5353 5357 5363 5371 5379 5384 5385 5379
5317 5317 5316 5316 5318 5319 5317 5320 5321 5324 5325 5327 5327 5329 5330 5330 5331 5332 5333 5334 5335 5337 5338 5340 5340 5341 5341 5342 5343 5347 5350 5353 5354 5355 5355 5356 5362 5368 5374 5382 5386 5385 5383
5318 5317 5316 5315 5317 5316 5319 5321 5323 5324 5325 5328 5330 5331 5331 5332 5332 5333 5334 5336 5338 5339 5342 5343 5344 5345 5346 5347 5348 5351 5354 5356 5358 5358 5358 5359 5364 5371 5378 5384 5387 5389 5386
5318 5318 5317 5315 5314 5317 5319 5321 5323 5324 5326 5329 5330 5332 5332 5333 5333 5334 5336 5337 5339 5342 5344 5346 5348 5349 5351 5352 5353 5354 5356 5358 5360 5360 5360 5363 5368 5375 5382 5387 5390 5390 5390